Location: Great Falls
(47.5000°N, 111.3000°W)
Time: 17:13:04
(UTC-07:00)

ISS - Visible Passes

Search period start: 30 January 2023 00:00
Search period end: 09 February 2023 00:00
Orbit: 413 x 419 km, 51.6° (Epoch: 30 January)

Date Brightness Start Highest point End Pass type
(mag) Time Alt. Az. Time Alt. Az. Time Alt. Az.
30 Jan -3.6 18:15:26 10° WNW 18:18:46 56° NNE 18:21:36 13° E visible
30 Jan -1.8 19:52:17 10° WNW 19:54:31 30° WSW 19:54:31 30° WSW visible
31 Jan -3.2 19:03:30 10° WNW 19:06:49 56° SSW 19:08:13 30° SE visible
01 Feb -3.7 18:14:45 10° WNW 18:18:08 83° SSW 18:21:31 10° ESE visible
01 Feb -1.2 19:52:16 10° W 19:54:27 16° SW 19:54:59 16° SSW visible
02 Feb -1.6 19:03:03 10° W 19:05:53 25° SW 19:08:42 10° SSE visible
03 Feb -2.3 18:14:04 10° WNW 18:17:14 39° SW 18:20:24 10° SE visible
04 Feb -0.5 19:03:39 10° WSW 19:04:39 11° SW 19:05:39 10° SSW visible
05 Feb -0.8 18:13:43 10° W 18:16:04 18° SW 18:18:23 10° S visible
